Regional Weather Roundup
Issued by NWS

Home | Current Version | Previous Version | Text Only | Print | Product List | Glossary On
Versions: 1 2 3 4 5 6 7 8 9 10 11 12 13 14 15 16 17 18 19 20 21 22 23 24 25 26 27 28 29 30 31 32 33 34 35 36 37
000
ASPQ40 PGUM 231812
RWRPQ
WEATHER ROUNDUP FOR THE MARIANAS AND MICRONESIA
NATIONAL WEATHER SERVICE TIYAN GU
400 AM CHST FRI OCT 24 2014

GUZ001>004-231900-
MARIANA ISLANDS-

CITY           SKY/WX    TMP DP  RH WIND       PRES   REMARKS
GUAM AIRPORT   PTCLDY    79  77  94 CALM      29.83S
ANDERSEN AFB   PTCLDY    79  77  94 S2        29.83F
ROTA AIRPORT   NOT AVBL
TINIAN AP      NOT AVBL
SAIPAN AP      CLEAR     79  77  94 E5        29.83S THUNDER

$$

PMZ161-231900-
REPUBLIC OF PALAU-

CITY           SKY/WX    TMP DP  RH WIND       PRES   REMARKS
KOROR AP       MOCLDY    77  75  94 CALM      29.79F
KOROR WSO      CLOUDY    77  75  94 W5        29.79F

$$

PMZ171>174-231900-
FEDERATED STATES OF MICRONESIA-

CITY           SKY/WX    TMP DP  RH WIND       PRES   REMARKS
YAP AIRPORT    MOCLDY    79  77  94 VRB3      29.80F
CHUUK AP       CLOUDY    81  77  89 NW8       29.79S
POHNPEI AP     NOT AVBL
POHNPEI WSO    LGT RAIN  79  77  94 E3        29.84R
KOSRAE AP      NOT AVBL

$$

PMZ181-231900-
REPUBLIC OF THE MARSHALL ISLANDS-

CITY           SKY/WX    TMP DP  RH WIND       PRES   REMARKS
KWAJALEIN AP   MOCLDY    81  73  78 NE10      29.81S
MAJURO AP      NOT AVBL
MAJURO WSO     MOCLDY    82  77  83 E5        29.82R HX  91

$$




USA.gov is the U.S. government's official web portal to all federal, state and local government web resources and services.